Showing default

DIAPASON (D1-A), 2016

Orbit data source: Space-Track

DIAPASON (D1-A), 2016 is a payload satellite owned by CNES (FR) in LEO that was launched on Thu, 17 Feb 1966 UTC via a DIAMANT A launch vehicle from the Hamma Guira Space Track Range (HGSTR). Payload-class satellites include a variety of spacecraft equipped with specific instruments for various scientific and technological missions. These include communications satellites like Starlink; space stations such as the ISS; scientific satellites like the Hubble; Earth observation satellites from companies like Planet Labs, Umbra, and HawkEye 360; GPS; miniature CubeSats for education and research; and military/defense satellites.

Loading next visibility...
Identifier
2016, 1966-013A
Orbit
LEO
Country
Flag of FRFR
Related business
Manufacturer
CNES
Mission
Spacecraft
Bus & Motor
D-1, Unknown motor
Mass
19 kg wet, 19 kg dry
Launch date (UTC)
1966-02-17 (61 years ago)
Launch vehicle
DIAMANT A
Launch site
Hamma Guira Space Track Range (HGSTR)
Object type
Payload
Rocket body
Debris
Shape & HBR
CYL + 4 PAN + 4 ANT, 1.1 m
Radar Cross Section
Large (>1 m²)

Expand to show TLE details & history
Last TLE update: 21 hours ago

TLE from 21 hours ago
0 DIAPASON (D1-A)
1 02016U 66013A   26255.20988626  .00001128  00000-0  31492-3 0  9990
2 02016  34.0939 316.7810 1156171 217.1764 134.3076 12.66687847751489
Epoch: 2026-09-12T05:02Z
TLE epoch observation values (Epoch: 2026-09-12T05:02:14.172Z)
Latitude
-0.00005°
Longitude
-110.00029°
Altitude
2,069.229 km
Speed
6.567 km/s
True Right ascension
21h 07m 07s
True Declination
0° 00' 00"
Sunlit
Object was in full shadow at epoch
Visualization orbit readout
Latitude
Unknown
Longitude
Unknown
Altitude
Unknown
Speed
Unknown
Apparent Right ascension
Unknown
Apparent Declination
Unknown
Sunlit
N/A
Visualization observer readout
Local Sidereal Time
18:34:43
Azimuth
Unknown
Elevation
Unknown
Doppler factor
Unknown
Orbital elements
Apogee altitude
2,297.638 km
Perigee altitude
499.409 km
Semi-major axis
7,776.66 km
Eccentricity
0.11562
Inclination
34.0939°
RAAN
316.781°
Arg. of periapsis
217.1764°
True anomaly
142.88467°
Mean anomaly
134.3076°
Eccentric anomaly
138.68132°
Mean motion
3.16485 °/min
Orbital period
113.75 mins
BSTAR
0.00031492
Loading maneuver chart data...
Computing Atmospheric mass density...

Documentation

Showing up to 5 results
|